Total_Precipitation_Accumulation
0.00 0.02 0.07 0.05 0.03 0.03 0.03 0.14 0.38 0.49 0.63 0.56 0.60 0.87 0.97 0.92 0.94 1.09 1.14 1.03 0.89 0.60
0.00 0.00 0.01 0.04 0.04 0.04 0.04 0.02 0.12 0.18 0.36 0.45 0.43 0.49 0.60 0.73 0.89 0.95 0.94 1.02 1.09 1.17
0.00 0.00 0.01 0.05 0.11 0.11 0.11 0.16 0.10 0.09 0.14 0.31 0.44 0.46 0.47 0.35 0.40 0.64 0.53 0.40 0.47 0.54
0.00 0.00 0.00 0.03 0.09 0.18 0.19 0.27 0.31 0.20 0.13 0.16 0.30 0.45 0.53 0.55 0.52 0.41 0.43 0.56 0.57 0.38
0.00 0.00 0.00 0.00 0.01 0.07 0.17 0.26 0.30 0.32 0.29 0.18 0.19 0.26 0.37 0.45 0.52 0.66 0.74 0.57 0.52 0.50
0.00 0.00 0.00 0.00 0.00 0.02 0.25 0.22 0.18 0.31 0.33 0.22 0.23 0.24 0.22 0.33 0.43 0.48 0.50 0.55 0.69 0.67
0.00 0.00 0.00 0.00 0.00 0.00 0.03 0.25 0.32 0.18 0.29 0.42 0.36 0.26 0.29 0.35 0.29 0.25 0.31 0.40 0.46 0.44
0.00 0.00 0.00 0.00 0.00 0.00 0.00 0.01 0.11 0.33 0.33 0.20 0.34 0.50 0.48 0.43 0.49 0.48 0.38 0.28 0.28 0.36
0.00 0.00 0.00 0.00 0.00 0.00 0.00 0.00 0.02 0.05 0.18 0.23 0.21 0.25 0.29 0.36 0.33 0.31 0.31 0.33 0.23 0.17
0.00 0.00 0.00 0.00 0.00 0.01 0.01 0.00 0.01 0.04 0.10 0.28 0.47 0.48 0.30 0.32 0.36 0.30 0.22 0.16 0.13 0.14
0.00 0.00 0.00 0.00 0.00 0.00 0.05 0.09 0.03 0.02 0.04 0.09 0.39 1.16 1.35 1.00 0.56 0.51 0.52 0.45 0.26 0.15
0.00 0.00 0.00 0.00 0.00 0.00 0.00 0.04 0.12 0.11 0.12 0.10 0.14 0.43 0.60 0.97 1.04 0.99 0.88 0.69 0.80 0.90
0.00 0.00 0.00 0.00 0.00 0.00 0.00 0.00 0.01 0.05 0.15 0.25 0.25 0.31 0.31 0.33 0.35 0.57 0.70 0.80 0.98 0.99
0.00 0.00 0.00 0.00 0.00 0.00 0.00 0.00 0.01 0.01 0.01 0.04 0.08 0.20 0.39 0.53 0.63 0.50 0.54 0.69 0.69 0.79